This demonstration page uses our WeatherBlox Daily Observations layout. Learn more.

Left ArrowRight Arrow

39.01783, -85.05884

Hourly Observations for December 9, 2016

Temp ( °F °C ) Dew Point ( °F °C ) Humidity (%) Winds ( mph kmh ) Pressure ( in mb ) Visibility ( mi km ) Precip ( " mm )
12:34 am 00:34 Cloudy with Light Snow 21 -6 18 -8 86 86 NW 13 20 30.53 1034 2 3 N/A
12:52 am 00:52 Cloudy with Light Snow 22 -5.6 18 -7.8 85 85 WNW 8 13 30.47 1032 3 5 N/A
1:52 am 01:52 Cloudy with Light Snow 22 -5.6 16 -8.9 78 78 NW 9 15 30.47 1032 5 8 N/A
2:52 am 02:52 Cloudy 22 -5.6 14 -10 71 71 WNW 13 20 30.49 1033 10 16 N/A
3:35 am 03:35 Cloudy 21 -6.1 14 -10 74 74 W 13 20 30.53 1034 10 16 N/A
3:52 am 03:52 Cloudy with Light Snow 22 -5.6 13 -10.6 68 68 WNW 14 22 30.50 1033 9 14 N/A
4:52 am 04:52 Cloudy 21 -6.1 14 -10 74 74 W 9 15 30.50 1033 10 16 N/A
5:16 am 05:16 Cloudy 21 -6 16 -9 80 80 W 9 15 30.53 1034 9 14 N/A
5:52 am 05:52 Cloudy with Light Snow 22 -5.6 14 -10 71 71 WNW 13 20 30.51 1033 9 14 N/A
6:52 am 06:52 Cloudy with Light Snow 21 -6.1 12 -11.1 68 68 W 9 15 30.52 1034 9 14 N/A
7:52 am 07:52 Cloudy with Light Snow 21 -6.1 13 -10.6 71 71 W 10 17 30.54 1034 9 14 N/A
8:52 am 08:52 Cloudy with Light Snow 21 -6.1 13 -10.6 71 71 WNW 12 19 30.55 1035 6 10 N/A
9:52 am 09:52 Cloudy with Light Snow 22 -5.6 14 -10 71 71 W 13 20 30.57 1035 7 11 N/A
10:52 am 10:52 Cloudy with Light Snow 22 -5.6 14 -10 71 71 W 12 19 30.58 1036 5 8 N/A
11:52 am 11:52 Cloudy with Light Snow 23 -5 13 -10.6 65 65 W 12 19 30.58 1035 7 11 N/A
12:52 pm 12:52 Cloudy with Light Snow 24 -4.4 14 -10 65 65 W 7 11 30.55 1035 9 14 N/A
1:52 pm 13:52 Cloudy 24 -4.4 13 -10.6 62 62 W 8 13 30.54 1034 9 14 N/A
2:52 pm 14:52 Cloudy with Light Snow 24 -4.4 13 -10.6 62 62 WSW 7 11 30.54 1034 6 10 N/A
3:38 pm 15:38 Cloudy with Light Snow 25 -4 12 -11 59 59 W 7 11 30.56 1035 9 14 N/A
3:52 pm 15:52 Cloudy with Light Snow 25 -3.9 13 -10.6 60 60 W 9 15 30.55 1034 9 14 N/A
4:52 pm 16:52 Cloudy 24 -4.4 13 -10.6 62 62 WSW 7 11 30.55 1035 10 16 N/A
5:52 pm 17:52 Cloudy 24 -4.4 13 -10.6 62 62 SW 7 11 30.56 1035 10 16 N/A
6:52 pm 18:52 Cloudy with Light Snow 24 -4.4 14 -10 65 65 WSW 9 15 30.57 1035 9 14 N/A
7:52 pm 19:52 Cloudy 23 -5 14 -10 68 68 W 8 13 30.58 1036 10 16 N/A
8:52 pm 20:52 Cloudy 23 -5 14 -10 68 68 WSW 6 9 30.56 1035 10 16 N/A
9:52 pm 21:52 Mostly Cloudy 23 -5 14 -10 68 68 N N/A 30.55 1034 10 16 N/A
10:52 pm 22:52 Mostly Cloudy 22 -5.6 14 -10 71 71 N N/A 30.55 1034 10 16 N/A
11:52 pm 23:52 Mostly Cloudy 20 -6.7 14 -10 78 78 SW 5 7 30.55 1035 10 16 N/A

Powered by AerisWeather